Miscellaneous Local Product
Issued by NWS North Platte, NE

Home | Current Version | Previous Version | Text Only | Print | Product List | Glossary On
Versions: 1 2 3 4 5 6 7 8 9 10 11 12 13 14 15 16 17 18 19 20 21 22 23 24 25 26 27 28 29 30 31 32 33 34 35 36 37 38 39 40 41 42 43 44 45 46 47 48 49 50
000
AXUS43 KLBF 101510
MISLBF


WESTERN AND NORTH CENTRAL NEBRASKA HOURLY WEATHER ROUNDUP
NATIONAL WEATHER SERVICE NORTH PLATTE NE
900 AM CST SUN DEC 10 2017

NOTE: "FAIR" INDICATES FEW OR NO CLOUDS BELOW 12,000 FEET WITH NO
SIGNIFICANT WEATHER AND/OR OBSTRUCTIONS TO VISIBILITY.

NOTE: STATIONS NOT REPORTING VARIABLES SUCH AS SKY/WEATHER OR
PRESSURE ARE PROVIDED BY RAWS AND APRS NETWORKS AND ARE NOT UNDER
NATIONAL WEATHER SERVICE QUALITY CONTROL.

...OBSERVATIONS IN AND NEAR THE EASTERN PANHANDLE OF NEBRASKA...

CITY           SKY/WX    TMP DP  RH WIND       PRES   REMARKS
PINE RIDGE     CLOUDY    35  15  44 SW7       30.28R WCI  29
GORDON         FAIR      38  15  39 W15       30.25R WCI  29
CHADRON        CLEAR     42  11  28 W17       30.29S
ALLIANCE       CLOUDY    32  12  43 W13       30.30S WCI  22
SIDNEY         CLEAR     37   7  28 W17       30.34R WCI  27
CRESCENT LAKE    N/A     35   9  34 NW6G13      N/A  WCI  30
$$

...OBSERVATIONS IN NORTHERN NEBRASKA AND FAR SOUTHERN SOUTH DAKOTA...

CITY           SKY/WX    TMP DP  RH WIND       PRES   REMARKS
WINNER         FAIR      42  18  37 W13       30.13S
VALENTINE      CLOUDY    36  17  46 W7        30.19S WCI  30
THEDFORD       CLEAR     39  15  38 W15       30.22S WCI  31
AINSWORTH      CLEAR     41  17  38 W18       30.17S
O`NEILL        CLEAR     41  19  40 NW8       30.13R
ORD            CLEAR     45  14  28 NW13      30.15R
BROKEN BOW     CLEAR     48  12  23 NW18G29   30.18R
VALENTINE NWR    N/A     36  13  38 NW6G15      N/A  WCI  31
HALSEY           N/A     40  13  32 W9G18       N/A  WCI  34
BUTTE            N/A     40  22  47 W8          N/A  WCI  34
CHAMBERS         N/A     42  20  40 W3          N/A
EWING            N/A     40  22  48 NW8         N/A  WCI  34
$$

...OBSERVATIONS IN SOUTHWEST NEBRASKA AND FAR NORTHEAST COLORADO...

CITY           SKY/WX    TMP DP  RH WIND       PRES   REMARKS
WRAY           FAIR      39   3  22 W13G18    30.34S WCI  32
HOLYOKE        FAIR      37  10  32 W12       30.34R WCI  30
IMPERIAL       CLOUDY    36   9  32 W13       30.32R WCI  27
OGALLALA       CLEAR     32  14  46 W14       30.31R HAZE    WCI  22
NORTH PLATTE   CLEAR     34  18  52 W8        30.26R WCI  27
MCCOOK         CLEAR     38  12  34 W16       30.29R WCI  29
LEXINGTON      CLEAR     37  14  38 NW16      30.23R WCI  27
STAPLETON        N/A     42  14  31 W3          N/A
GOTHENBURG       N/A     36  12  37 W6          N/A  WCI  31
CALLAWAY         N/A     40  17  40 W6          N/A
$$

...OBSERVATIONS IN CENTRAL LINCOLN COUNTY AREA...

CITY           SKY/WX    TMP DP  RH WIND       PRES   REMARKS
N.P. AIRPORT   CLEAR     34  18  52 W8        30.26R WCI  27
N.P. DOWNTOWN    N/A     35  15  45 CALM        N/A
N.P. SOUTHEAST   N/A     35  15  44 W5          N/A  WCI  31
N.P. HILLCREST   N/A     32  17  52 W7          N/A  WCI  26
$$

...SOME OBSERVATIONS FROM AROUND THE REGION...

CITY           SKY/WX    TMP DP  RH WIND       PRES   REMARKS
DENVER         CLOUDY    37  -4  17 SW15      30.40R WCI  28
GRAND JUNCTION CLOUDY    19   6  57 SE6       30.60R WCI  11
LARAMIE        CLOUDY    20   6  55 S6        30.44S WCI  12
CHEYENNE       CLOUDY    33   2  26 CALM      30.40R
CASPER         CLOUDY    28  13  53 SW15      30.42R WCI  16
BISMARCK       CLOUDY    33  21  61 W7        30.06S WCI  27
RAPID CITY     CLOUDY    44   7  21 NW9       30.21F
PIERRE         CLEAR     40  21  46 NW16      30.11R WCI  31
SIOUX FALLS    CLOUDY    31  26  82 NW8       30.04S WCI  23
OMAHA          PTSUNNY   40  25  55 N9        30.08R WCI  34
GRAND ISLAND   SUNNY     42  18  37 NW10      30.17R
SCOTTSBLUFF    CLOUDY    27  11  51 NW6       30.36S WCI  20
KANSAS CITY    MOSUNNY   40  22  48 SW14      30.10R WCI  32
HILL CITY      SUNNY     45  12  26 NW15      30.28R
WICHITA        SUNNY     44  17  33 NW12      30.23R
DODGE CITY     SUNNY     39   9  29 NW14      30.33R WCI  31
OKLAHOMA CITY  SUNNY     39  23  52 SW5       30.31R
DALLAS         MOSUNNY   42  30  62 S3        30.38S
AMARILLO       CLOUDY    41  15  35 NW7       30.42R
$$




USA.gov is the U.S. government's official web portal to all federal, state and local government web resources and services.